GFSFLT1_sfc_thetae_114.txt.gz
Theta_e
298 300 301 303 305 308 309 310 311 314 323 323 325 326 326 325 322 318 312 307 305 300 300 296 296 298 298 296 296 295 295 295
300 300 302 303 304 307 308 309 308 308 309 318 324 324 320 316 311 308 304 303 303 302 296 295 294 295 295 295 294 293 292 292
300 300 300 301 303 305 307 308 309 309 310 310 313 317 314 316 310 305 300 302 296 298 294 294 294 294 293 292 292 291 290 290
299 300 300 301 303 305 306 306 306 306 308 309 310 310 311 307 305 303 297 297 293 295 293 292 292 292 292 291 291 290 290 289
299 299 300 301 302 303 303 304 303 303 306 306 306 306 306 302 299 297 295 293 290 292 291 291 291 291 290 290 289 288 288 288
300 300 300 300 300 300 302 301 301 301 302 303 300 300 297 295 293 290 292 290 292 289 290 290 290 288 289 289 288 287 287 287
299 299 299 299 299 298 300 299 298 299 299 297 294 291 291 289 288 288 288 288 288 287 288 288 286 289 289 289 287 287 286 285
300 300 300 300 299 298 298 298 296 296 293 291 291 290 289 287 286 286 286 287 286 287 288 287 287 289 289 288 287 286 286 285
300 301 301 301 299 300 298 295 294 293 290 289 289 288 287 286 286 286 286 285 285 286 287 287 287 289 289 286 287 286 286 285
300 300 301 300 299 297 294 293 293 292 291 289 289 288 287 286 286 286 285 285 285 286 286 287 288 289 288 286 286 285 284 285
297 298 299 299 297 293 292 291 291 292 291 290 289 288 287 287 286 285 286 285 285 285 286 286 287 289 288 286 286 284 284 284
296 296 297 295 293 292 291 290 292 291 290 288 288 288 288 287 286 285 285 285 285 284 285 285 286 288 288 287 285 285 284 284
292 292 293 292 291 291 290 292 289 288 287 287 286 287 287 286 285 285 285 284 284 284 283 283 284 286 289 289 287 287 285 284
287 288 289 287 289 289 290 288 287 286 286 286 286 286 286 285 284 284 284 284 283 282 282 282 282 283 287 288 289 287 285 285
285 285 286 285 285 287 287 286 285 285 285 285 285 285 285 286 285 285 284 284 283 283 283 282 281 282 284 285 287 286 286 284
283 284 284 284 284 285 285 285 285 285 285 285 285 284 285 285 285 285 286 286 284 284 283 282 281 281 283 284 284 284 285 283
282 282 282 282 282 282 281 284 285 284 283 284 285 284 284 284 283 285 285 285 286 286 285 284 284 285 284 284 284 284 284 281
279 280 281 280 281 281 281 281 282 285 284 284 283 283 283 283 283 280 281 284 284 284 285 284 283 285 284 284 284 284 283 280
278 277 277 277 279 279 281 282 281 283 282 284 284 283 283 283 283 282 281 279 280 283 283 284 284 284 285 285 284 281 282 281
275 274 273 274 276 276 276 279 282 283 284 283 284 283 283 283 282 282 281 281 281 281 282 283 284 284 284 285 281 280 279 276

GFSFLT1_sfc_thetae_117.txt.gz
Theta_e
303 304 305 307 308 308 310 312 316 323 326 328 330 330 329 329 329 328 328 319 317 312 309 306 305 303 303 300 300 299 298 297
303 304 304 305 305 307 308 309 310 314 320 324 326 327 326 325 326 322 318 313 312 309 305 304 301 301 299 298 297 296 294 295
303 303 303 304 304 305 307 309 310 311 311 316 323 322 322 322 318 312 310 308 308 304 301 300 298 298 297 294 294 293 292 292
303 303 303 303 304 305 306 308 310 310 310 310 310 315 319 317 312 308 306 303 302 299 298 296 295 295 295 293 293 292 291 291
303 303 303 303 304 305 306 308 308 308 308 309 309 310 312 314 309 305 303 299 299 296 295 294 294 293 292 291 291 291 290 290
303 304 304 303 303 304 305 306 306 305 306 307 307 308 305 300 299 296 298 295 295 291 290 290 291 290 290 290 289 288 288 288
302 303 303 303 302 303 303 303 303 303 303 304 301 298 295 293 292 290 290 290 289 290 289 289 288 291 291 290 288 287 286 286
301 302 303 303 303 302 302 303 301 299 297 295 293 292 291 290 289 288 289 288 288 288 288 288 287 291 291 290 287 286 286 285
301 302 304 305 304 303 303 301 297 296 294 291 291 290 289 288 288 288 288 287 287 288 287 288 287 291 290 288 287 286 286 286
301 301 302 302 303 300 297 296 295 295 293 291 290 288 288 287 287 287 286 286 286 286 287 287 287 290 289 287 286 285 285 285
299 299 300 301 300 295 294 294 294 294 293 292 290 288 288 288 287 287 287 285 285 285 287 286 287 290 289 287 285 284 284 284
297 296 296 295 294 293 293 292 293 291 290 288 288 287 289 288 287 286 285 284 284 285 285 286 287 288 289 288 285 284 284 283
293 292 292 292 292 291 291 292 289 288 287 287 286 287 286 286 286 285 285 285 284 284 284 285 286 287 289 288 287 287 284 284
288 288 288 287 288 288 289 288 286 286 285 285 285 286 286 286 285 284 285 284 284 283 283 283 284 286 289 289 288 288 285 285
286 285 284 285 285 285 286 285 285 285 285 285 285 285 285 286 286 286 284 284 284 284 283 283 282 284 286 287 288 287 286 286
284 284 283 284 284 284 284 285 285 285 284 285 285 285 285 285 286 285 286 287 285 285 285 284 282 283 285 286 286 286 286 284
282 282 282 283 282 282 282 283 284 284 284 285 285 285 284 284 284 287 287 287 288 289 287 286 287 287 286 286 287 288 287 283
280 279 280 280 280 279 281 281 281 283 284 284 282 284 284 283 284 283 283 284 286 287 288 287 286 287 286 286 287 287 286 282
277 275 275 276 275 275 277 279 279 281 282 283 284 284 284 283 283 283 283 281 282 284 285 286 286 286 286 286 286 283 284 282
273 271 272 271 271 271 272 276 279 281 284 284 284 284 283 283 283 282 282 282 282 282 283 284 286 285 286 286 283 282 281 281

GFSFLT1_sfc_thetae_120.txt.gz
Theta_e
297 299 300 301 303 306 312 315 319 319 323 326 328 329 329 329 327 328 328 325 321 318 317 311 309 309 308 303 301 299 297 296
296 297 298 298 298 300 301 303 306 312 315 319 323 325 326 327 325 322 320 318 317 314 310 308 307 306 303 300 297 295 293 293
296 297 297 297 298 298 299 301 302 304 306 310 315 317 318 318 318 318 314 311 312 309 308 305 304 302 300 297 295 294 292 291
297 297 297 297 298 298 299 301 303 305 304 305 306 311 314 314 312 311 309 307 306 306 305 302 301 300 298 297 295 293 292 290
296 297 297 298 298 298 299 301 303 304 304 303 303 305 307 312 310 307 305 303 302 302 302 299 298 297 295 293 292 291 290 289
296 297 298 297 297 298 299 301 301 301 300 301 301 302 302 300 299 297 298 298 297 295 293 293 294 293 291 291 291 289 287 287
295 296 297 298 297 298 298 299 299 299 298 299 298 295 293 292 292 291 290 291 290 289 290 291 292 293 293 291 289 288 287 286
296 296 297 297 298 297 297 298 297 295 292 292 291 291 290 289 288 288 289 288 288 289 289 289 289 292 292 290 288 287 286 286
295 296 297 298 298 298 297 295 292 290 290 289 289 288 287 287 288 288 288 287 287 287 288 287 286 292 292 289 287 286 285 285
295 296 296 296 297 295 291 290 289 289 289 288 287 285 286 285 287 287 286 286 286 286 286 286 286 291 290 287 286 285 285 284
294 295 294 292 292 290 289 288 288 288 288 288 287 284 284 284 284 283 286 285 285 285 286 286 287 291 290 288 286 285 284 283
292 291 290 288 288 288 288 287 288 287 286 284 284 282 283 282 282 282 282 284 284 284 285 286 287 288 290 289 285 285 283 282
287 285 285 285 287 286 285 286 282 282 282 282 280 282 283 280 281 284 285 285 284 284 283 284 285 287 290 289 288 287 284 282
283 283 283 282 283 283 282 281 281 281 278 282 281 283 284 280 283 284 285 284 283 283 283 283 284 286 289 290 288 288 284 283
279 279 279 280 281 279 280 279 284 284 282 280 280 279 279 282 282 284 284 284 284 283 284 283 283 285 286 287 287 286 285 286
279 278 278 278 278 276 278 279 280 280 280 282 282 279 279 280 280 281 281 284 285 285 285 284 282 284 287 287 286 285 286 284
276 276 275 275 274 275 276 277 277 279 278 278 278 277 278 278 279 286 287 288 288 289 286 282 287 287 287 288 288 288 288 283
273 272 271 271 270 270 272 273 274 274 277 277 277 277 277 277 277 277 281 287 286 287 288 288 286 288 287 288 288 288 288 283
269 268 267 267 267 267 268 270 271 279 278 274 275 276 276 276 276 275 275 274 275 281 285 286 287 287 288 287 287 284 286 284
267 265 265 264 265 265 266 268 274 276 280 280 281 281 280 279 278 277 277 275 274 273 279 279 286 286 287 287 284 283 282 284

GFSFLT1_sfc_thetae_123.txt.gz
Theta_e
297 298 298 305 311 313 316 318 320 319 323 326 326 326 326 326 325 326 326 325 323 322 322 317 317 315 315 314 309 310 302 298
295 295 296 296 298 301 305 310 312 315 315 317 320 322 323 326 325 324 322 322 323 322 320 317 314 312 312 309 306 306 300 296
294 294 295 295 295 296 297 299 301 304 309 311 313 315 317 321 322 319 321 316 318 316 314 312 311 309 309 306 304 304 300 295
295 295 295 295 296 296 297 297 299 301 301 302 305 310 312 313 315 316 315 311 309 309 309 307 307 306 306 306 303 302 301 296
293 294 295 296 296 296 297 298 299 301 301 301 301 303 306 309 309 310 310 308 306 306 306 304 304 303 301 300 299 300 297 295
294 294 295 295 295 296 297 298 299 299 299 299 299 300 300 301 302 301 302 303 302 300 298 298 298 297 295 294 295 293 292 291
294 294 295 296 296 296 296 297 297 297 297 296 296 295 294 293 293 293 294 295 294 293 294 293 294 295 295 295 292 291 289 288
294 294 294 295 296 295 296 296 295 293 291 291 291 291 289 288 289 289 289 288 289 290 291 290 290 294 294 292 291 290 289 287
293 293 294 295 296 296 295 293 291 289 289 289 289 288 288 287 287 287 287 289 289 289 289 289 289 293 293 290 288 288 288 287
293 294 294 294 294 292 289 289 289 289 288 288 287 284 285 283 284 288 287 286 287 286 287 287 287 291 292 289 286 286 286 286
292 292 291 289 290 288 288 287 287 287 287 287 287 282 282 283 281 282 286 286 285 286 286 286 286 291 292 289 287 285 285 285
289 288 287 286 287 286 286 286 286 285 285 283 283 281 281 281 281 280 284 285 285 284 284 285 286 288 291 291 286 286 286 284
285 283 283 284 286 284 284 283 282 280 281 280 280 283 283 277 278 284 285 285 284 284 283 283 284 287 291 291 289 288 285 284
282 282 281 280 282 282 280 281 279 280 281 282 282 283 283 277 279 284 284 284 283 283 283 283 283 284 289 290 290 289 285 285
279 278 277 277 278 277 277 280 283 279 280 276 276 278 280 278 279 279 282 283 283 283 283 283 282 284 285 287 288 287 287 285
278 277 276 275 275 274 276 275 278 275 276 280 279 275 276 277 277 279 278 280 279 281 284 284 282 284 286 287 286 286 286 285
275 275 272 270 270 270 270 271 273 277 276 275 275 274 275 274 276 284 286 288 288 288 285 280 286 288 288 288 289 289 288 284
272 271 269 267 267 265 266 268 274 275 273 273 275 275 273 273 274 274 279 285 286 286 287 287 287 288 288 288 288 289 288 284
268 266 265 265 264 264 265 270 279 282 281 280 281 281 281 279 277 275 270 271 274 280 284 285 286 286 287 288 288 284 286 285
265 263 263 262 262 262 264 277 279 279 279 278 279 280 280 279 271 270 270 270 271 270 278 276 284 285 286 287 283 283 283 284

GFSFLT1_sfc_thetae_126.txt.gz
Theta_e
298 297 301 309 314 318 322 322 323 323 320 319 318 319 320 321 321 323 324 324 322 322 323 325 323 323 321 321 319 316 316 315
293 294 296 297 304 309 312 314 315 317 323 324 323 321 320 320 322 324 324 323 323 322 323 322 322 321 319 319 317 312 314 306
292 293 294 294 294 297 303 308 312 312 314 317 319 316 319 322 323 322 321 318 321 323 322 322 321 319 316 315 313 311 311 307
293 293 293 294 294 294 294 295 297 298 300 302 305 307 310 312 313 314 315 318 315 318 318 316 315 313 312 313 310 308 309 306
293 293 293 294 294 295 295 296 296 298 299 298 299 300 302 305 306 307 308 310 309 309 308 308 308 307 306 304 306 306 305 303
293 292 293 294 294 294 295 296 297 297 297 297 297 297 297 297 298 300 300 300 300 300 300 299 300 298 298 297 299 298 296 294
292 293 294 295 294 295 295 295 296 297 296 295 295 294 293 292 292 292 294 295 295 294 295 296 295 296 296 297 296 294 292 290
292 293 293 293 295 295 295 294 294 293 291 291 291 291 291 290 289 290 290 289 290 291 291 292 293 294 295 293 294 292 292 290
291 292 293 294 294 294 294 292 291 290 289 289 289 288 288 288 288 287 287 287 288 289 290 290 289 293 293 292 291 290 290 289
291 292 293 293 293 291 288 288 288 288 288 287 287 283 285 282 282 286 285 286 287 287 287 286 288 291 292 291 287 287 286 287
291 291 290 289 289 288 287 287 287 287 287 287 286 281 281 282 280 281 285 286 285 286 286 286 287 289 291 291 286 286 285 284
289 288 287 286 287 286 285 286 285 284 284 282 282 280 280 279 279 280 285 285 285 284 285 285 285 286 290 292 285 286 285 285
284 283 283 285 286 284 284 283 282 280 282 283 284 284 284 276 282 285 285 285 285 284 284 284 284 286 288 291 292 288 285 285
282 281 280 280 283 283 281 281 281 282 282 282 283 283 284 277 285 284 284 284 283 283 283 284 283 284 288 289 291 291 286 284
279 277 278 276 278 279 281 282 282 281 280 277 277 280 280 278 277 276 279 278 281 282 283 282 281 283 284 285 286 287 287 286
278 278 276 275 274 272 273 277 278 278 280 280 277 274 275 275 275 276 275 277 275 276 278 279 278 278 284 283 284 286 286 284
274 274 271 270 269 267 267 274 278 277 276 275 276 275 275 274 276 284 285 287 287 287 282 276 285 287 288 289 288 289 289 284
274 271 268 267 266 263 270 273 278 277 276 276 279 280 280 280 280 274 276 283 284 285 285 286 286 286 287 287 289 288 288 285
268 265 264 265 264 266 274 281 281 281 281 281 281 281 277 271 270 269 273 275 270 278 283 283 285 285 286 287 285 280 284 284
263 262 261 261 261 265 272 280 279 279 279 279 280 280 279 279 270 268 272 273 267 265 275 273 282 284 284 284 279 281 282 282

GFSFLT1_sfc_thetae_129.txt.gz
Theta_e
298 299 300 310 315 319 320 318 316 317 319 319 319 320 320 320 318 319 319 318 317 318 319 320 321 321 322 321 321 320 318 318
293 295 297 302 308 312 315 316 317 316 315 315 316 317 318 318 318 317 317 317 318 318 320 321 322 323 322 321 320 319 318 317
292 292 293 295 299 306 309 312 314 315 316 316 316 315 313 315 315 315 318 319 321 321 321 322 322 322 321 320 318 317 315 315
291 291 292 292 293 293 296 302 302 306 308 308 309 310 312 313 314 316 317 318 317 320 320 320 320 318 316 316 313 311 312 312
291 292 292 292 292 293 293 294 294 296 297 298 299 300 301 303 304 306 307 309 311 311 311 309 309 308 307 306 307 307 307 305
291 292 292 292 293 293 294 294 295 295 296 297 297 297 297 296 297 302 303 303 303 302 299 299 300 300 300 299 300 299 299 297
291 291 292 293 293 294 294 294 296 296 296 295 295 293 292 291 291 292 294 295 295 294 293 292 293 295 296 296 297 296 294 293
292 292 292 293 294 294 294 294 294 293 291 291 290 291 290 290 290 290 289 289 289 290 291 292 293 294 294 293 292 293 293 292
291 291 292 292 293 293 293 292 291 290 289 289 289 289 288 288 288 287 287 287 288 289 290 290 290 292 292 292 291 291 291 290
291 291 292 293 293 291 289 289 288 288 288 288 288 283 284 282 282 285 286 287 287 287 287 286 287 291 291 291 288 287 287 287
290 291 291 291 290 288 288 287 288 287 287 286 285 282 281 282 281 280 285 285 285 286 286 285 286 289 290 290 286 285 285 285
290 290 289 287 287 287 286 286 285 285 283 282 283 282 281 280 280 285 285 285 285 285 285 285 285 285 289 290 286 285 285 285
287 286 285 286 286 285 285 284 282 282 283 284 284 284 284 282 285 285 285 285 285 285 284 284 284 286 288 290 290 289 285 285
284 282 282 280 283 283 282 283 283 284 283 284 284 284 284 286 285 284 285 284 283 283 281 277 279 283 287 287 289 289 287 285
280 280 279 275 280 283 282 282 283 282 280 281 282 282 281 278 283 283 282 278 281 280 281 282 277 277 279 280 282 284 286 287
280 281 278 278 278 280 282 282 282 282 281 280 276 275 276 276 275 276 275 277 274 273 274 280 281 277 285 284 283 285 285 285
279 278 275 275 274 273 270 274 279 278 277 275 276 274 275 277 276 286 286 287 287 286 281 275 284 287 287 287 288 288 288 284
274 272 270 271 272 273 269 279 280 279 277 277 278 280 279 275 275 276 275 284 285 285 285 285 285 286 286 287 287 288 285 282
269 267 267 270 270 271 276 275 277 280 281 281 280 275 275 276 276 276 276 273 269 277 281 283 284 285 285 285 283 281 284 282
265 264 264 269 267 268 274 280 280 280 280 279 275 280 275 269 272 274 274 273 271 265 273 272 280 280 280 280 268 272 277 280

GFSFLT1_sfc_thetae_135.txt.gz
Theta_e
300 301 301 306 314 318 319 318 319 320 322 323 324 325 325 325 322 322 322 320 318 318 319 319 319 320 319 320 320 319 319 318
298 299 300 302 309 315 318 317 317 318 319 320 321 322 323 322 321 321 320 318 317 317 317 318 318 319 319 319 319 318 318 319
298 295 296 298 305 311 315 316 316 316 317 318 319 320 320 320 320 319 318 316 317 317 317 317 318 319 318 318 318 318 317 317
293 293 294 296 298 306 312 315 314 313 314 315 316 316 317 318 318 314 316 315 315 316 316 317 318 318 318 318 318 317 314 312
291 292 293 293 295 299 304 307 308 311 311 311 311 313 314 312 311 312 313 313 314 315 315 313 312 311 307 307 306 305 305 302
292 292 292 292 292 293 297 301 303 306 308 309 305 306 306 307 307 307 307 308 308 305 302 301 302 299 301 300 301 300 299 298
291 291 291 291 292 292 292 293 296 300 301 300 298 297 298 296 296 298 297 298 298 297 298 298 295 295 296 298 298 297 295 295
292 292 292 292 292 292 292 292 293 293 292 291 292 291 291 291 291 293 295 295 294 295 295 294 294 295 294 293 295 296 295 294
292 292 292 292 292 292 292 292 291 291 290 290 290 290 289 289 289 289 289 290 290 291 293 292 291 293 293 291 293 292 292 291
295 293 291 291 291 291 290 290 290 290 290 289 289 288 288 287 287 287 288 289 290 290 289 289 289 292 292 290 289 288 288 287
292 291 291 290 291 290 290 289 290 290 289 289 288 288 288 287 286 286 288 288 288 287 288 286 287 290 291 289 287 286 286 286
291 292 292 290 290 290 290 290 290 288 287 285 285 285 286 286 286 288 287 287 286 286 286 286 286 288 291 290 287 287 286 286
290 290 288 290 291 290 289 288 285 285 285 285 285 285 286 286 287 287 287 286 286 285 284 283 284 286 290 290 290 290 286 286
290 288 288 289 291 290 288 285 285 285 285 285 285 285 286 287 287 287 287 287 286 285 283 282 281 282 288 287 288 289 286 286
284 285 285 283 282 286 285 285 286 285 285 285 285 285 286 287 287 287 287 287 286 285 284 281 279 281 281 283 285 286 286 287
285 283 282 281 282 284 285 286 285 285 284 285 285 286 285 284 286 285 283 286 286 285 283 281 280 280 284 283 283 285 286 285
279 280 280 281 281 283 285 286 284 283 283 283 283 282 282 282 282 285 285 286 285 283 281 279 284 287 288 288 287 288 287 285
278 278 278 277 276 278 281 284 284 283 281 281 281 281 282 283 283 282 285 287 286 286 286 285 286 286 287 288 288 287 284 279
275 275 276 275 274 277 280 281 280 280 280 280 280 280 281 282 282 282 279 277 276 282 284 285 284 284 286 286 280 276 274 278
273 273 273 272 270 274 280 280 280 280 281 281 278 278 278 278 278 277 276 275 273 269 274 276 282 281 279 278 276 274 269 266

GFSFLT1_sfc_thetae_138.txt.gz
Theta_e
310 311 310 311 315 321 323 323 325 327 327 328 329 329 330 330 329 329 329 329 327 326 326 326 326 325 324 321 320 320 320 320
309 310 310 309 310 316 321 323 323 325 326 327 328 329 329 329 330 330 329 328 326 325 325 324 324 324 323 321 321 319 319 320
307 308 305 306 307 311 318 321 322 324 324 325 326 328 328 328 329 329 327 328 325 325 324 323 323 323 322 321 320 319 317 319
302 302 303 303 305 308 314 318 321 321 322 323 324 324 325 326 326 326 326 325 323 322 321 321 321 321 322 321 321 319 319 318
301 300 300 301 302 305 310 316 319 319 320 320 321 322 322 323 323 324 323 322 321 321 320 320 320 320 320 317 316 312 309 306
300 301 300 299 299 300 305 311 316 316 316 317 319 320 320 320 320 320 319 319 319 318 317 315 312 308 306 305 305 304 302 301
300 299 299 299 299 299 300 304 311 314 313 315 313 313 312 312 310 309 308 310 308 304 302 301 297 297 298 302 303 302 301 300
304 301 300 300 299 298 299 301 304 309 308 302 302 301 302 300 298 297 298 297 297 299 299 298 297 295 296 295 301 300 299 298
304 305 301 300 299 300 299 298 299 302 302 300 300 300 296 295 294 295 297 299 299 299 300 298 296 294 294 292 299 299 298 297
308 307 301 299 300 298 297 297 296 296 296 296 296 294 294 293 294 294 294 293 294 293 292 292 291 293 293 293 293 291 290 291
304 300 298 299 297 296 295 295 295 295 295 295 294 292 292 293 292 290 292 290 291 289 291 289 290 291 292 292 290 287 288 288
304 300 300 296 295 295 295 294 297 294 293 292 292 291 293 291 289 289 290 289 288 288 288 288 289 291 291 290 289 288 287 288
302 299 301 295 294 294 294 296 292 292 291 290 289 289 289 288 288 289 289 288 287 286 286 287 287 288 291 291 290 290 287 286
298 298 295 293 294 293 294 291 290 289 288 287 287 287 287 288 288 289 288 289 287 287 286 285 286 288 290 291 291 290 287 287
291 291 290 290 290 293 289 289 288 287 287 286 286 286 287 288 289 289 289 289 287 287 286 285 284 285 285 286 288 287 287 288
289 290 289 288 288 287 287 288 287 287 287 286 287 287 287 288 289 289 289 290 288 287 287 285 284 285 285 285 286 287 287 286
283 284 284 284 285 285 286 287 287 286 286 286 286 287 287 286 285 287 287 288 288 288 287 284 287 287 286 286 287 287 287 285
279 281 282 281 282 285 286 286 286 286 285 285 285 285 285 285 284 282 285 286 286 285 285 286 287 288 288 287 288 288 287 285
277 277 278 277 277 280 285 285 285 285 284 284 284 285 285 285 284 284 283 282 283 286 286 287 287 288 289 288 287 284 284 283
272 272 273 272 271 274 281 282 282 282 283 283 284 285 285 285 284 283 282 281 279 278 284 284 285 287 287 285 283 281 278 278

GFSFLT1_sfc_thetae_141.txt.gz
Theta_e
313 314 315 317 317 319 323 325 326 327 329 330 330 330 330 330 329 330 330 330 329 328 328 327 327 327 327 325 324 321 321 320
311 312 314 315 315 315 319 322 324 326 327 328 329 330 330 329 329 330 330 330 329 328 328 327 327 327 325 323 322 319 318 318
308 308 309 311 312 312 315 319 321 324 325 326 327 328 329 329 329 329 328 329 329 328 327 326 326 326 324 322 319 318 316 317
306 305 305 307 308 309 311 316 320 323 323 324 324 326 327 327 328 328 329 329 328 327 325 325 325 324 324 323 321 318 318 317
304 306 306 304 306 307 308 313 317 320 321 321 322 324 325 327 328 328 328 327 327 326 324 324 323 322 321 321 320 319 317 315
305 306 307 305 303 303 305 309 314 317 319 319 320 321 322 323 324 325 325 324 324 322 322 321 320 318 318 315 317 312 307 305
306 305 304 304 304 302 302 303 310 314 316 317 318 318 318 319 318 318 319 319 318 316 316 314 305 300 302 307 307 304 302 300
306 307 307 305 304 303 303 303 306 309 312 310 311 311 312 308 304 304 305 304 304 305 304 303 301 297 298 298 303 302 302 300
308 308 308 309 304 304 303 302 302 304 308 306 303 303 299 300 301 298 298 300 298 298 299 298 296 296 295 294 300 299 299 298
309 309 309 309 305 302 300 299 298 299 302 303 302 300 297 297 297 298 296 294 296 294 294 294 292 294 294 295 294 292 291 291
309 309 309 308 303 299 297 296 297 297 297 298 299 298 297 297 294 290 295 292 292 290 292 290 292 293 293 294 290 288 288 287
308 308 308 306 298 296 296 295 297 295 294 294 295 295 297 295 291 292 291 290 290 289 289 289 290 291 292 292 289 289 287 287
304 306 307 302 296 296 295 297 294 293 292 291 290 291 291 289 288 289 289 289 288 288 287 288 288 289 292 292 291 291 288 287
292 294 301 297 295 294 296 294 291 291 289 288 288 288 289 288 288 289 289 290 289 288 288 287 287 288 291 291 291 290 287 287
285 286 290 292 289 293 292 290 288 289 288 288 288 287 288 289 289 290 290 290 288 288 287 286 286 287 288 288 289 288 287 287
282 283 285 287 288 287 287 288 288 287 288 287 288 287 287 289 290 290 290 291 288 288 288 286 285 286 288 288 287 287 287 286
278 279 280 283 284 285 285 286 287 287 287 288 288 288 288 288 287 290 290 290 291 291 289 287 289 288 288 288 289 289 289 285
275 277 278 279 278 277 284 286 286 286 287 287 287 287 287 286 286 284 286 289 290 289 289 288 288 288 287 288 288 289 288 285
271 271 272 272 272 273 276 285 285 286 286 287 287 287 287 287 287 286 284 282 283 287 286 287 288 288 287 288 288 285 286 285
268 267 269 269 270 271 274 282 284 284 284 285 286 286 286 286 286 285 285 284 283 283 285 286 288 288 288 288 285 284 283 283